Year,Month,Day,Hour,Minute,Value (Times are PST for temperature in C)
2013,04,01,08,09,7.70
2013,04,01,08,10,7.70
2013,04,01,08,11,7.80
2013,04,01,08,12,7.90
2013,04,01,08,13,8.00
2013,04,01,08,14,8.10
2013,04,01,08,15,8.20
2013,04,01,08,16,8.40
2013,04,01,08,17,8.50
2013,04,01,08,18,8.60
2013,04,01,08,19,8.70
2013,04,01,08,20,8.70
2013,04,01,08,21,8.80
2013,04,01,08,22,8.80
2013,04,01,08,23,8.90
2013,04,01,08,24,8.90
2013,04,01,08,25,9.00
2013,04,01,08,26,9.00
2013,04,01,08,27,9.10
2013,04,01,08,28,9.10
2013,04,01,08,29,9.20
2013,04,01,08,30,9.20
2013,04,01,08,31,9.30
2013,04,01,08,32,9.30
2013,04,01,08,33,9.40
2013,04,01,08,34,9.40
2013,04,01,08,35,9.40
2013,04,01,08,36,9.50
2013,04,01,08,37,9.50
2013,04,01,08,38,9.50
2013,04,01,08,39,9.50
2013,04,01,08,40,9.50
2013,04,01,08,41,9.60
2013,04,01,08,42,9.70
2013,04,01,08,43,9.70
2013,04,01,08,44,9.70
2013,04,01,08,45,9.80
2013,04,01,08,46,9.80
2013,04,01,08,47,9.90
2013,04,01,08,48,9.90
2013,04,01,08,49,10.10
2013,04,01,08,50,10.10
2013,04,01,08,51,10.20
2013,04,01,08,52,10.20
2013,04,01,08,53,10.30
2013,04,01,08,54,10.40
2013,04,01,08,55,10.40
2013,04,01,08,56,10.40
2013,04,01,08,57,10.40
2013,04,01,08,58,10.40
2013,04,01,08,59,10.40
2013,04,01,09,00,10.50
2013,04,01,09,01,10.60
2013,04,01,09,02,10.60
2013,04,01,09,03,10.60
2013,04,01,09,04,10.60
2013,04,01,09,05,10.60
2013,04,01,09,06,10.60
2013,04,01,09,07,10.70
2013,04,01,09,08,10.70
2013,04,01,09,09,10.80
2013,04,01,09,10,10.80
2013,04,01,09,11,10.90
2013,04,01,09,12,10.90
2013,04,01,09,13,10.90
2013,04,01,09,14,10.90
2013,04,01,09,15,11.10
2013,04,01,09,16,11.10
2013,04,01,09,17,11.10
2013,04,01,09,18,11.10
2013,04,01,09,19,11.10
2013,04,01,09,20,11.10
2013,04,01,09,21,11.10
2013,04,01,09,22,11.10
2013,04,01,09,23,11.10
2013,04,01,09,24,11.10
2013,04,01,09,25,11.10
2013,04,01,09,26,11.10
2013,04,01,09,27,11.10
2013,04,01,09,28,11.10
2013,04,01,09,29,11.10
2013,04,01,09,30,11.10
2013,04,01,09,31,11.10
2013,04,01,09,32,10.90
2013,04,01,09,33,10.90
2013,04,01,09,34,10.90
2013,04,01,09,35,10.90
2013,04,01,09,36,10.90
2013,04,01,09,37,11.10
2013,04,01,09,38,11.10
2013,04,01,09,39,11.20
2013,04,01,09,40,11.10
2013,04,01,09,41,11.10
2013,04,01,09,42,11.10
2013,04,01,09,43,11.10
2013,04,01,09,44,11.10
2013,04,01,09,45,11.10
2013,04,01,09,46,11.10
2013,04,01,09,47,11.10
2013,04,01,09,48,11.10
2013,04,01,09,49,11.10
2013,04,01,09,50,11.10
2013,04,01,09,51,11.10
2013,04,01,09,52,11.20
2013,04,01,09,53,11.20
2013,04,01,09,54,11.20
2013,04,01,09,55,11.30
2013,04,01,09,56,11.40
2013,04,01,09,57,11.50
2013,04,01,09,58,11.60
2013,04,01,09,59,11.70
2013,04,01,10,00,11.80
2013,04,01,10,01,11.80
2013,04,01,10,02,11.70
2013,04,01,10,03,11.60
2013,04,01,10,04,11.70
2013,04,01,10,05,11.70
2013,04,01,10,06,11.60
2013,04,01,10,07,11.60
2013,04,01,10,08,11.60
2013,04,01,10,09,11.60
2013,04,01,10,10,11.60
2013,04,01,10,11,11.60
2013,04,01,10,12,11.70
2013,04,01,10,13,11.80
2013,04,01,10,14,11.80
2013,04,01,10,15,11.80
2013,04,01,10,16,11.90
2013,04,01,10,17,12.00
2013,04,01,10,18,12.10
2013,04,01,10,19,12.20
2013,04,01,10,20,12.20
2013,04,01,10,21,12.20
2013,04,01,10,22,12.10
2013,04,01,10,23,12.10
2013,04,01,10,24,12.00
2013,04,01,10,25,12.10
2013,04,01,10,26,12.10
2013,04,01,10,27,12.10
2013,04,01,10,28,12.00
2013,04,01,10,29,11.90
2013,04,01,10,30,11.90
2013,04,01,10,31,11.90
2013,04,01,10,32,12.00
2013,04,01,10,33,12.00
2013,04,01,10,34,12.10
2013,04,01,10,35,12.10
2013,04,01,10,36,12.00
2013,04,01,10,37,12.00
2013,04,01,10,38,11.90
2013,04,01,10,39,11.90
2013,04,01,10,40,11.90
2013,04,01,10,41,11.80
2013,04,01,10,42,11.80
2013,04,01,10,43,11.80
2013,04,01,10,44,11.80
2013,04,01,10,45,11.80
2013,04,01,10,46,11.80
2013,04,01,10,47,11.80
2013,04,01,10,48,11.90
2013,04,01,10,49,12.00
2013,04,01,10,50,12.10
2013,04,01,10,51,12.20
2013,04,01,10,52,12.30
2013,04,01,10,53,12.40
2013,04,01,10,54,12.40
2013,04,01,10,55,12.30
2013,04,01,10,56,12.30
2013,04,01,10,57,12.30
2013,04,01,10,58,12.30
2013,04,01,10,59,12.30
2013,04,01,11,00,12.30
2013,04,01,11,01,12.20
2013,04,01,11,02,12.20
2013,04,01,11,03,12.30
2013,04,01,11,04,12.20
2013,04,01,11,05,12.20
2013,04,01,11,06,12.20
2013,04,01,11,07,12.10
2013,04,01,11,08,12.20
2013,04,01,11,09,12.30
2013,04,01,11,10,12.40
2013,04,01,11,11,12.50
2013,04,01,11,12,12.50
2013,04,01,11,13,12.60
2013,04,01,11,14,12.70
2013,04,01,11,15,12.70
2013,04,01,11,16,12.60
2013,04,01,11,17,12.60
2013,04,01,11,18,12.70
2013,04,01,11,19,12.80
2013,04,01,11,20,12.80
2013,04,01,11,21,12.80
2013,04,01,11,22,12.80
2013,04,01,11,23,12.80
2013,04,01,11,24,12.80
2013,04,01,11,25,12.70
2013,04,01,11,26,12.80
2013,04,01,11,27,12.80
2013,04,01,11,28,12.70
2013,04,01,11,29,12.60
2013,04,01,11,30,12.50
2013,04,01,11,31,12.50
2013,04,01,11,32,12.60
2013,04,01,11,33,12.70
2013,04,01,11,34,12.80
2013,04,01,11,35,12.80
2013,04,01,11,36,12.70
2013,04,01,11,37,12.70
2013,04,01,11,38,12.70
2013,04,01,11,39,12.70
2013,04,01,11,40,12.70
2013,04,01,11,41,12.80
2013,04,01,11,42,12.80
2013,04,01,11,43,12.80
2013,04,01,11,44,12.80
2013,04,01,11,45,12.70
2013,04,01,11,46,12.60
2013,04,01,11,47,12.60
2013,04,01,11,48,12.50
2013,04,01,11,49,12.50
2013,04,01,11,50,12.40
2013,04,01,11,51,12.40
2013,04,01,11,52,12.40
2013,04,01,11,53,12.50
2013,04,01,11,54,12.50
2013,04,01,11,55,12.60
2013,04,01,11,56,12.50
2013,04,01,11,57,12.40
2013,04,01,11,58,12.30
2013,04,01,11,59,12.30
2013,04,01,12,00,12.20
2013,04,01,12,01,12.20
2013,04,01,12,02,12.20
2013,04,01,12,03,12.30
2013,04,01,12,04,12.40
2013,04,01,12,05,12.40
2013,04,01,12,06,12.50
2013,04,01,12,07,12.50
2013,04,01,12,08,12.40
2013,04,01,12,09,12.40
2013,04,01,12,10,12.50
2013,04,01,12,11,12.40
2013,04,01,12,12,12.40
2013,04,01,12,13,12.30
2013,04,01,12,14,12.30
2013,04,01,12,15,12.30
2013,04,01,12,16,12.20
2013,04,01,12,17,12.20
2013,04,01,12,18,12.10
2013,04,01,12,19,12.10
2013,04,01,12,20,12.20
2013,04,01,12,21,12.20
2013,04,01,12,22,12.20
2013,04,01,12,23,12.20
2013,04,01,12,24,12.20
2013,04,01,12,25,12.20
2013,04,01,12,26,12.20
2013,04,01,12,27,12.30
2013,04,01,12,28,12.30
2013,04,01,12,29,12.30
2013,04,01,12,30,12.30
2013,04,01,12,31,12.30
2013,04,01,12,32,12.30
2013,04,01,12,33,12.30
2013,04,01,12,34,12.30
2013,04,01,12,35,12.40
2013,04,01,12,36,12.40
2013,04,01,12,37,12.40
2013,04,01,12,38,12.40
2013,04,01,12,39,12.50
2013,04,01,12,40,12.50
2013,04,01,12,41,12.60
2013,04,01,12,42,12.70
2013,04,01,12,43,12.60
2013,04,01,12,44,12.50
2013,04,01,12,45,12.40
2013,04,01,12,46,12.30
2013,04,01,12,47,12.30
2013,04,01,12,48,12.20
2013,04,01,12,49,12.20
2013,04,01,12,50,12.30
2013,04,01,12,51,12.30
2013,04,01,12,52,12.30
2013,04,01,12,53,12.30
2013,04,01,12,54,12.30
2013,04,01,12,55,12.30
2013,04,01,12,56,12.30
2013,04,01,12,57,12.30
2013,04,01,12,58,12.30
2013,04,01,12,59,12.30
2013,04,01,13,00,12.40
2013,04,01,13,01,12.40
2013,04,01,13,02,12.40
2013,04,01,13,03,12.40
2013,04,01,13,04,12.50
2013,04,01,13,05,12.60
2013,04,01,13,06,12.60
2013,04,01,13,07,12.60
2013,04,01,13,08,12.70
2013,04,01,13,09,12.70
2013,04,01,13,10,12.70
2013,04,01,13,11,12.60
2013,04,01,13,12,12.70
2013,04,01,13,13,12.80
2013,04,01,13,14,12.80
2013,04,01,13,15,12.80
2013,04,01,13,16,12.80
2013,04,01,13,17,12.80
2013,04,01,13,18,12.80
2013,04,01,13,19,12.90
2013,04,01,13,20,12.80
2013,04,01,13,21,12.90
2013,04,01,13,22,12.90
2013,04,01,13,23,12.80
2013,04,01,13,24,12.80
2013,04,01,13,25,12.80
2013,04,01,13,26,12.80
2013,04,01,13,27,12.80
2013,04,01,13,28,12.80
2013,04,01,13,29,12.80
2013,04,01,13,30,12.80
2013,04,01,13,31,12.80
2013,04,01,13,32,12.80
2013,04,01,13,33,12.70
2013,04,01,13,34,12.60
2013,04,01,13,35,12.60
2013,04,01,13,36,12.60
2013,04,01,13,37,12.50
2013,04,01,13,38,12.60
2013,04,01,13,39,12.70
2013,04,01,13,40,12.80
2013,04,01,13,41,12.80
2013,04,01,13,42,12.70
2013,04,01,13,43,12.70
2013,04,01,13,44,12.70
2013,04,01,13,45,12.60
2013,04,01,13,46,12.60
2013,04,01,13,47,12.60
2013,04,01,13,48,12.60
2013,04,01,13,49,12.70
2013,04,01,13,50,12.70
2013,04,01,13,51,12.70
2013,04,01,13,52,12.80
2013,04,01,13,53,12.80
2013,04,01,13,54,12.80
2013,04,01,13,55,12.90
2013,04,01,13,56,13.00
2013,04,01,13,57,13.10
2013,04,01,13,58,13.10
2013,04,01,13,59,13.10
2013,04,01,14,00,13.20
2013,04,01,14,01,13.20
2013,04,01,14,02,13.20
2013,04,01,14,03,13.20
2013,04,01,14,04,13.10
2013,04,01,14,05,13.00
2013,04,01,14,06,13.00
2013,04,01,14,07,13.00
2013,04,01,14,08,13.00
2013,04,01,14,09,13.00
2013,04,01,14,10,12.90
2013,04,01,14,11,12.80
2013,04,01,14,12,12.80
2013,04,01,14,13,12.80
2013,04,01,14,14,12.80
2013,04,01,14,15,12.80
2013,04,01,14,16,12.70
2013,04,01,14,17,12.60
2013,04,01,14,18,12.50
2013,04,01,14,19,12.50
2013,04,01,14,20,12.50
2013,04,01,14,21,12.50
2013,04,01,14,22,12.40
2013,04,01,14,23,12.40
2013,04,01,14,24,12.30
2013,04,01,14,25,12.30
2013,04,01,14,26,12.30
2013,04,01,14,27,12.30
2013,04,01,14,28,12.30
2013,04,01,14,29,12.30
2013,04,01,14,30,12.10
2013,04,01,14,31,12.20
2013,04,01,14,32,12.20
2013,04,01,14,33,12.20
2013,04,01,14,34,12.10
2013,04,01,14,35,12.10
2013,04,01,14,36,12.00
2013,04,01,14,37,11.90
2013,04,01,14,38,11.90
2013,04,01,14,39,12.00
2013,04,01,14,40,12.00
2013,04,01,14,41,12.00
2013,04,01,14,42,11.90
2013,04,01,14,43,12.00
2013,04,01,14,44,12.10
2013,04,01,14,45,12.20
2013,04,01,14,46,12.20
2013,04,01,14,47,12.30
2013,04,01,14,48,12.30
2013,04,01,14,49,12.30
2013,04,01,14,50,12.30
2013,04,01,14,51,12.30
2013,04,01,14,52,12.20
2013,04,01,14,53,12.10
2013,04,01,14,54,12.10
2013,04,01,14,55,12.10
2013,04,01,14,56,12.20
2013,04,01,14,57,12.20
2013,04,01,14,58,12.30
2013,04,01,14,59,12.30
2013,04,01,15,00,12.20
2013,04,01,15,01,12.10
2013,04,01,15,02,12.10
2013,04,01,15,03,12.00
2013,04,01,15,04,12.00
2013,04,01,15,05,11.90
2013,04,01,15,06,11.90
2013,04,01,15,07,11.90
2013,04,01,15,08,11.80
2013,04,01,15,09,11.80
2013,04,01,15,10,11.80
2013,04,01,15,11,11.80
2013,04,01,15,12,11.80
2013,04,01,15,13,11.80
2013,04,01,15,14,11.80
2013,04,01,15,15,11.80
2013,04,01,15,16,11.80
2013,04,01,15,17,11.90
2013,04,01,15,18,11.90
2013,04,01,15,19,12.00
2013,04,01,15,20,12.00
2013,04,01,15,21,12.10
2013,04,01,15,22,12.00
2013,04,01,15,23,12.00
2013,04,01,15,24,11.90
2013,04,01,15,25,11.90
2013,04,01,15,26,11.90
2013,04,01,15,27,11.90
2013,04,01,15,28,11.80
2013,04,01,15,29,11.80
2013,04,01,15,30,11.90
2013,04,01,15,31,11.90
2013,04,01,15,32,12.00
2013,04,01,15,33,12.10
2013,04,01,15,34,12.10
2013,04,01,15,35,12.00
2013,04,01,15,36,12.00
2013,04,01,15,37,11.90
2013,04,01,15,38,11.90
2013,04,01,15,39,11.80
2013,04,01,15,40,11.80
2013,04,01,15,41,11.80
2013,04,01,15,42,11.80
2013,04,01,15,43,11.70
2013,04,01,15,44,11.70
2013,04,01,15,45,11.70
2013,04,01,15,46,11.80
2013,04,01,15,47,11.80
2013,04,01,15,48,11.70
2013,04,01,15,49,11.70
2013,04,01,15,50,11.70
2013,04,01,15,51,11.70
2013,04,01,15,52,11.80
2013,04,01,15,53,11.90
2013,04,01,15,54,11.90
2013,04,01,15,55,11.80
2013,04,01,15,56,11.80
2013,04,01,15,57,11.80
2013,04,01,15,58,11.80
2013,04,01,15,59,11.80
2013,04,01,16,00,11.80
2013,04,01,16,01,11.80
2013,04,01,16,02,11.80
2013,04,01,16,03,11.80
2013,04,01,16,04,11.80
2013,04,01,16,05,11.80
2013,04,01,16,06,11.90
2013,04,01,16,07,11.90
2013,04,01,16,08,11.90
2013,04,01,16,09,11.80
2013,04,01,16,10,11.80
2013,04,01,16,11,11.80
2013,04,01,16,12,11.80
2013,04,01,16,13,11.80
2013,04,01,16,14,11.80
2013,04,01,16,15,11.80
2013,04,01,16,16,11.80
2013,04,01,16,17,11.80
2013,04,01,16,18,11.80
2013,04,01,16,19,11.90
2013,04,01,16,20,11.80
2013,04,01,16,21,11.80
2013,04,01,16,22,11.80
2013,04,01,16,23,11.80
2013,04,01,16,24,11.80
2013,04,01,16,25,11.80
2013,04,01,16,26,11.80
2013,04,01,16,27,11.90
2013,04,01,16,28,12.00
2013,04,01,16,29,12.00
2013,04,01,16,30,12.10
2013,04,01,16,31,12.10
2013,04,01,16,32,12.00
2013,04,01,16,33,11.80
2013,04,01,16,34,11.80
2013,04,01,16,35,11.80
2013,04,01,16,36,11.80
2013,04,01,16,37,11.80
2013,04,01,16,38,11.80
2013,04,01,16,39,11.80
2013,04,01,16,40,11.90
2013,04,01,16,41,12.00
2013,04,01,16,42,12.00
2013,04,01,16,43,12.00
2013,04,01,16,44,11.90
2013,04,01,16,45,11.90
2013,04,01,16,46,11.90
2013,04,01,16,47,11.90
2013,04,01,16,48,11.90
2013,04,01,16,49,11.90
2013,04,01,16,50,12.00
2013,04,01,16,51,12.00
2013,04,01,16,52,12.00
2013,04,01,16,53,12.00
2013,04,01,16,54,12.00
2013,04,01,16,55,12.00
2013,04,01,16,56,12.00
2013,04,01,16,57,12.10
2013,04,01,16,58,12.10
2013,04,01,16,59,12.10
2013,04,01,17,00,12.10
2013,04,01,17,01,12.20
2013,04,01,17,02,12.30
2013,04,01,17,03,12.30
2013,04,01,17,04,12.30
2013,04,01,17,05,12.30
2013,04,01,17,06,12.30
2013,04,01,17,07,12.30
2013,04,01,17,08,12.30
2013,04,01,17,09,12.30
2013,04,01,17,10,12.30
2013,04,01,17,11,12.30
2013,04,01,17,12,12.30
2013,04,01,17,13,12.40
2013,04,01,17,14,12.40
2013,04,01,17,15,12.50
2013,04,01,17,16,12.50
2013,04,01,17,17,12.60
2013,04,01,17,18,12.60
2013,04,01,17,19,12.50
2013,04,01,17,20,12.50
2013,04,01,17,21,12.50
2013,04,01,17,22,12.50
2013,04,01,17,23,12.50
2013,04,01,17,24,12.60
2013,04,01,17,25,12.60
2013,04,01,17,26,12.60
2013,04,01,17,27,12.60
2013,04,01,17,28,12.60
2013,04,01,17,29,12.60
2013,04,01,17,30,12.60
2013,04,01,17,31,12.70
2013,04,01,17,32,12.60
2013,04,01,17,33,12.70
2013,04,01,17,34,12.70
2013,04,01,17,35,12.80
2013,04,01,17,36,12.80
2013,04,01,17,37,12.80
2013,04,01,17,38,12.80
2013,04,01,17,39,12.80
2013,04,01,17,40,12.90
2013,04,01,17,41,12.90
2013,04,01,17,42,12.90
2013,04,01,17,43,12.90
2013,04,01,17,44,12.90
2013,04,01,17,45,12.90
2013,04,01,17,46,12.80
2013,04,01,17,47,12.80
2013,04,01,17,48,12.90
2013,04,01,17,49,12.90
2013,04,01,17,50,13.00
2013,04,01,17,51,13.00
2013,04,01,17,52,13.00
2013,04,01,17,53,13.10
2013,04,01,17,54,13.10
2013,04,01,17,55,13.10
2013,04,01,17,56,13.10
2013,04,01,17,57,13.10
2013,04,01,17,58,13.10
2013,04,01,17,59,13.10
2013,04,01,18,00,13.00
2013,04,01,18,01,13.00
2013,04,01,18,02,13.00
2013,04,01,18,03,13.00
2013,04,01,18,04,13.00
2013,04,01,18,05,13.10
2013,04,01,18,06,13.10
2013,04,01,18,07,13.10
2013,04,01,18,08,13.20
2013,04,01,18,09,13.20
2013,04,01,18,10,13.20
2013,04,01,18,11,13.30
2013,04,01,18,12,13.30
2013,04,01,18,13,13.30
2013,04,01,18,14,13.30
2013,04,01,18,15,13.30
2013,04,01,18,16,13.30
2013,04,01,18,17,13.30
2013,04,01,18,18,13.30
2013,04,01,18,19,13.30
2013,04,01,18,20,13.30
2013,04,01,18,21,13.30
2013,04,01,18,22,13.30
2013,04,01,18,23,13.30
2013,04,01,18,24,13.30
2013,04,01,18,25,13.30
2013,04,01,18,26,13.30
2013,04,01,18,27,13.30
2013,04,01,18,28,13.30
2013,04,01,18,29,13.30
2013,04,01,18,30,13.30
2013,04,01,18,31,13.30
2013,04,01,18,32,13.30
2013,04,01,18,33,13.30
2013,04,01,18,34,13.30
